Flag for U.S.A. Weather past 2 weeks in Cheyenne, Wyoming, U.S.A.

Now
58 °F

Clear.


Feels Like: 57 °F
Forecast: 56 / 70 °F
Wind: 7 mph from Southwest

Location: Cheyenne Airport

Current Time: Jul 29, 2014 at 3:00:54 AM

Latest Report: Jul 29, 2014 at 1:53 AM


Visibility: 10 mi

Pressure: 30.06 "Hg

Humidity: 81%

Dew point: 52 °F

Location of CheyenneLocation

Historic Weather in Cheyenne — Graph

°F

Cheyenne temperature yesterday

Maximum temperature yesterday: 82 °F (at 3:53 PM)
Minimum temperature yesterday: 54 °F (at 4:53 AM)
Average temperature yesterday: 68 °F

Past Weeks' High & Low Weather Summary

 TemperatureHumidityPressure
High91 °F (Jul 20, 4:53 PM)100% (Jul 17, 6:53 AM)30.43 "Hg (Jul 17, 6:53 AM)
Low50 °F (Jul 17, 7:04 AM)14% (Jul 19, 3:53 PM)29.74 "Hg (Jul 20, 12:53 AM)
Average70 °F54%29.96 "Hg
* Reported Jul 14 1:53 AM — Jul 29 1:53 AM, Cheyenne, Weather by CustomWeather, © 2014

Note: Actual official high and low records may vary slightly from our data, if they occured in-between our weather recording intervals... More about our weather records

Advertising

Cheyenne weather history for previous 24 hours

 ConditionsComfort  
Time TempWeatherWind HumidityBarometerVisibility
1:53 AM
Jul 29
58 °FClear.7 mph81%30.06 "Hg10 mi
12:53 AM60 °FClear.5 mph78%30.07 "Hg10 mi
11:53 PM
Jul 28
62 °FClear.5 mph75%30.09 "Hg10 mi
10:53 PM62 °FClear.8 mph75%30.11 "Hg10 mi
9:53 PM64 °FClear.10 mph73%30.10 "Hg10 mi
8:53 PM65 °FSunny.12 mph70%30.12 "Hg10 mi
7:53 PM65 °FLight rain. Mostly cloudy.12 mph78%30.12 "Hg10 mi
6:53 PM71 °FScattered clouds.7 mph55%30.07 "Hg10 mi
5:53 PM79 °FScattered clouds.14 mph39%30.06 "Hg10 mi
4:53 PM82 °FScattered clouds.9 mph32%30.07 "Hg10 mi
3:53 PM82 °FPassing clouds.9 mph33%30.08 "Hg10 mi
2:53 PM81 °FPassing clouds.12 mph35%30.09 "Hg10 mi
1:53 PM79 °FScattered clouds.9 mph38%30.11 "Hg10 mi
12:53 PM80 °FSunny.9 mph36%30.12 "Hg10 mi
11:53 AM79 °FSunny.9 mph39%30.14 "Hg10 mi
10:53 AM76 °FSunny.8 mph47%30.16 "Hg10 mi
9:53 AM72 °FSunny.9 mph55%30.16 "Hg10 mi
8:53 AM67 °FSunny.No wind68%30.17 "Hg10 mi
7:53 AM61 °FFog.3 mph87%30.17 "Hg6 mi
6:53 AM58 °FFog.7 mph90%30.16 "Hg5 mi
5:53 AM56 °FClear.10 mph90%30.17 "Hg8 mi
4:53 AM54 °FClear.6 mph90%30.17 "Hg10 mi
3:53 AM56 °FClear.No wind81%30.18 "Hg10 mi
Weather by CustomWeather, © 2014

See weather overviewHow to use our weather pages